Tracking 19485 objects as of 21-Jan-2019
HD Live streaming from Space Station
objects crossing your sky now

AURA

Track AURA now!
10-day predictions
AURA is classified as:


NORAD ID: 28376
Int'l Code: 2004-026A
Perigee: 708.5 km
Apogee: 710.9 km
Inclination: 98.2 °
Period: 98.8 minutes
Semi major axis: 7080 km
RCS: 9.8844 m2 (large)
Launch date: July 15, 2004
Source: United States (US)
Launch site: AIR FORCE WESTERN TEST RANGE (AFWTR)

Study Earth's ozone, air quality, and climate; extension of UARS and TOMS missions.
aabbcc
Your satellite tracking list
Your tracking list is empty




NASA's NSSDC Master Catalog

Two Line Element Set (TLE):
1 28376U 04026A   19020.89077893 +.00000043 +00000-0 +19576-4 0  9990
2 28376 098.2199 326.0399 0001671 084.8318 275.3071 14.57106563772138
Source of the keplerian elements: AFSPC